User: anonymous   Login
Location: Columbia
(38.9520°N, 92.3340°W)
Time: 18:35:01
(UTC-05:00)
Language:

FENGYUN 3A - Orbit

View from above orbital plane
View from above orbital plane
View from above satellite
View from above satellite

Ground track
Ground track

The orbit data is extracted from the following two-line orbital elements,

1 32958U 08026A   15108.26843868  .00000109  00000-0  71695-4 0  9995
2 32958 098.5090 161.1179 0010465 055.7250 304.4921 14.19545281357127
Epoch (UTC): 18 April 2015 06:26:33
Eccentricity: 0.0010465
inclination: 98.5090°
perigee height: 819 km
apogee height: 834 km
right ascension of ascending node: 161.1179°
argument of perigee: 55.7250°
revolutions per day: 14.19545281
mean anomaly at epoch: 304.4921°
orbit number at epoch: 35712

The dashed part of the orbit path shows where the satellite is in the earth's shadow,  

DLR